星链-11359 (STARLINK-11359)

导读

STARLINK-11359是美国SpaceX于2024年11月9日发射的星链低轨互联网卫星,属于第二代星链卫星星座,部署在550公里左右的近地轨道。它配备相控阵天线,搭载激光星间链路与氩霍尔推进系统,能为全球提供低延迟高速宽带服务,覆盖偏远地区、航空、海洋和军事通信场景,支持直连手机功能,服役期满后可快速离轨,减少太空垃圾影响。

基本信息
目录编号:
61884
目录名称:
STARLINK-11359
国际标识:
2024-204L
轨道中心:
EARTH
卫星名称:
星链-11359
卫星全名:
星链-11359 (STARLINK-11359)
卫星状态:
在轨 (已飞行626 天)
发射日期:
2024-11-09 UTC
国别 :
美国 (US)
星等 :
--
轨道信息
数据来源 国际轨道数据 AOE轨道数据
星历时间 2026-07-27T19:47:50+0800
12小时前
查看轨道信息
2026-07-27T18:00:00+0800
14小时前
查看轨道信息
半长轴 6737.856km 6737.765km
偏心率 0.0000815 0.0002776
轨道倾角 53.159° 53.159°
近地点辐角 97.183° 83.229°
升交点赤经 26.975° 27.341°
平近点角 262.928° 213.544°
近地点 359.169km 357.757km
远地点 360.269km 361.499km
周期 91.737分钟 91.735分钟
每日圈数 15.697129 15.697446
详细信息
固有亮度:
5
最大亮度:
2.5
卫星平台:
Starlink V1.0
覆盖范围:
全球
运营商:
太空探索技术公司
运营商所在国:
美国
制造商(研发单位):
太空探索技术公司
制造商所在国:
美国
使用方式:
暂无
卫星简介
Starlink 计划是 SpaceX 推出的全球卫星互联网项目,通过发射低轨道卫星,为全球尤其是偏远地区提供高速、低延迟的互联网服务。自 2019 年起,Starlink 已部署数千颗卫星,旨在缩小全球数字鸿沟,推动互联网普及。该项目还为军事、航空等行业提供通信支持,带来广泛经济效益。
2D轨道图
3D轨道图
轨道高度分析图
轨道倾角分析图
轨道综合分析图
查看轨道综合分析图